Regional Weather Roundup
Issued by NWS New Orleans/Baton Rouge, LA

Home | Current Version | Previous Version | Graphics & Text | Print | Product List | Glossary On
Versions: 1 2 3 4 5 6 7 8 9 10 11 12 13 14 15 16 17 18 19 20 21 22 23 24 25 26 27 28 29 30 31 32 33 34 35 36 37 38 39 40 41 42 43 44 45 46 47 48 49 50
806
ASUS44 KLIX 310110
RWRLIX
NEW ORLEANS REGIONAL WEATHER ROUNDUP
NATIONAL WEATHER SERVICE NEW ORLEANS LA
700 PM CST FRI JAN 30 2015

NOTE: "FAIR" INDICATES FEW OR NO CLOUDS BELOW 12,000 FEET WITH NO
      SIGNIFICANT WEATHER AND/OR OBSTRUCTIONS TO VISIBILITY.
      SKY/WX - SKY CONDITION AND SIGNIFICANT WEATHER.
      TMP - AIR TEMPERATURE.     DP    - DEWPOINT TEMPERATURE.
      RH  - RELATIVE HUMIDITY.   PRES  - PRESSURE.
      HI  - HEAT INDEX.          WCI   - WIND CHILL INDEX.

*  THESE STATIONS ARE NOT NWS OR FAA STATIONS AND ARE NOT UNDER
   NWS QUALITY CONTROL.

LAZ038-040-048-061>063-065>067-069-310200-
SOUTHEAST LOUISIANA

CITY           SKY/WX    TMP DP  RH WIND       PRES   REMARKS
N.O. AUDUBON   NOT AVBL
N.O. INTL ARPT MOCLDY    53  38  56 N9        30.34R
N.O. LAKEFRONT MOCLDY    56  43  61 N12       30.34R
N.O. DOWNTOWN* NOT AVBL
SLIDELL        MOCLDY    46  39  76 CALM      30.34R
BATON ROUGE    CLOUDY    51  33  50 CALM      30.35R
BOOTHVILLE     MOCLDY    51  41  68 CALM      30.33R
BELLE CHASSE   MOCLDY    48  36  63 N3        30.33R
BOGALUSA*        N/A     48  38  68 CALM      30.36R
GALLIANO*      PTCLDY    52  40  63 N5        30.33R
NEW ROADS*       N/A     49  37  62 NW5       30.36S
GONZALES*        N/A     54  32  43 CALM      30.34R
HAMMOND*       MOCLDY    46  37  71 CALM      30.37R
HOUMA*         PTCLDY    50  35  55 NE5       30.33R
PORT FOURCHON* CLEAR     57  37  47 NE12      30.35R

$$

MSZ070-080>082-310200-
SOUTHERN MISSISSIPPI

CITY           SKY/WX    TMP DP  RH WIND       PRES   REMARKS
MCCOMB         MOCLDY    48  32  53 N3        30.35S
GULFPORT       MOCLDY    52  34  50 N7        30.33R
BILOXI         MOCLDY    52  36  54 N5        30.33R
PASCAGOULA     MOCLDY    51  31  46 N8        30.33R
STENNIS ARPT*  CLEAR     45  37  76 CALM      30.34R

$$

COASTAL OBSERVATIONS
LAKE AND NEARSHORE STATIONS

STATION/POSITION TIME  TEMP    WIND        PRES    WAVE
                       AIR SEA DIR/SP/G            HT/PER
                 (UTC) (F)     (DEG/KT/KT) (MB)    (FT/S)
PASCAGOULA       0100   55      10/  8/ 10 1026.5
WAVELAND YACHT   0100   55     360/  7/  8 1026.3
GRAND ISLE       0100   57 62   40/  8/ 11 1027.2
SOUTHWEST PASS   0100   50 46   30/ 11/ 13 1026.7
NEW CANAL        0100   55 56   10/  8/ 11 1027.6
SHELL BEACH      0100   56 58  360/  7/  7 1026.9

OFFSHORE STATIONS

STATION/POSITION TIME  TEMP    WIND        PRES    WAVE
                       AIR SEA DIR/SP/G            HT/PER
                 (UTC) (F)     (DEG/KT/KT) (MB)    (FT/S)
64 S DAUPHIN ISL 0047   58 68   30/ 16/ 19 1026.1    3/ 6

$$




USA.gov is the U.S. government's official web portal to all federal, state and local government web resources and services.